Location: Castillon
(43.0896°N, 0.2156°E)
Time: 08:32:27
(UTC+00:00)

FENGYUN 1C DEB - Visible Passes

Search period start: 29 January 2022 00:00
Search period end: 08 February 2022 00:00
Orbit: 830 x 916 km, 99.0° (Epoch: 28 January)

Date Brightness Start Highest point End Pass type
(mag) Time Alt. Az. Time Alt. Az. Time Alt. Az.
04 Feb ? 20:04:32 10° N 20:04:32 10° N 20:04:33 10° N visible
05 Feb ? 19:59:05 11° N 19:59:05 11° N 19:59:12 10° N visible
06 Feb ? 19:53:38 11° N 19:53:38 11° N 19:53:50 10° N visible
07 Feb ? 19:48:11 11° N 19:48:11 11° N 19:48:27 10° N visible
